STARLINK-1214

decayed
NORAD ID: 45224 Int'l Des: 2020-012 Owner: SPXS Country: US Constellation: starlink
LEOCIRCULAR
グループ

STARLINK-1214について

説明を読み込み中...

高度履歴

Altitude vs Time

uPlot chart will show altitude changes over time

軌道要素

1 45224U 20012AY 22157.71127634 .13275819 12156-4 32777-2 0 9993
2 45224 53.0228 226.5122 0008080 326.8910 127.7648 16.28352603130166
Epoch: Jun 6, 2022 • Age: 28808 hours

現在のステータス

Position data unavailable
打ち上げ日 Feb 17, 2020
運用期間 5.5 years
落下予定日 Jun 7, 2022
タイプ internet

技術仕様

分類 Payload
質量 260.00 kg
乾燥質量 248.00 kg
総質量 260.00 kg
長さ 0.20 m
直径 2.80 m
スパン 9.00 m
形状 Box + pan
製造者 SPXS
バスタイプ Starlink
フェーズステータス Unknown Transfer Status
所有者/国 SPXS/US

大規模コンステレーション

Loading constellations...